Regional Weather Roundup
Issued by NWS Wakefield, VA

Home | Current Version | Previous Version | Graphics & Text | Print | Product List | Glossary Off
Versions: 1 2 3 4 5 6 7 8 9 10 11 12 13 14 15 16 17 18 19 20 21 22 23 24 25 26 27 28 29 30 31 32 33 34 35 36 37 38 39 40 41 42 43 44 45 46 47 48 49 50

000
ASUS41 KAKQ 210814
RWRAKQ

REGIONAL WEATHER ROUNDUP
NATIONAL WEATHER SERVICE WAKEFIELD VA
400 AM EDT TUE APR 21 2015

Note: "fair" indicates few or no clouds below 12,000 feet with no
significant weather and/or obstructions to visibility. * = Denotes
station may not report precipitation (e.g., rain,snow,etc.),
thunder or fog.

VAZ042-051-052>054-056-210900-
NORTHERN VIRGINIA

CITY           SKY/WX    TMP DP  RH WIND       PRES   REMARKS
WASH NATIONAL  MOCLDY    63  55  75 NW13G18   29.65R
DULLES         CLOUDY    58  46  64 NW16G25   29.66R
FORT BELVOIR   CLOUDY    58  57  96 NW8       29.64R
QUANTICO       MOCLDY    61  57  87 NW3       29.65R
FREDERICKSBRG* MOCLDY    63  58  84 W5        29.64R
STAFFORD*      CLOUDY    58  32  37 CALM      29.69R
WARRENTON      LGT RAIN  59  58  94 W3        29.66R
CULPEPER*      CLOUDY    63  54  72 CALM      29.66R
MANASSAS*      CLOUDY    61  55  82 NW17G26   29.66R
LEESBURG*      CLOUDY    59  46  63 NW18G25   29.67R
WINCHESTER     CLOUDY    57  37  47 W13G26    29.70R
FRONT ROYAL*   CLOUDY    55  41  58 W12G22    29.69R
LURAY*         CLOUDY    59  45  58 NW10G16   29.71R
$$

VAZ048-049-060>072-079>083-210900-
CENTRAL AND SOUTH CENTRAL VIRGINIA

CITY           SKY/WX    TMP DP  RH WIND       PRES   REMARKS
RICHMOND       PTCLDY    66  57  72 SW10      29.65R
CHESTERFIELD*  NOT AVBL
PETERSBURG*    PTCLDY    63  60  90 SW7       29.68R
HANOVER        PTCLDY    63  57  81 SW5       29.66R
TAPPAHANNOCK*  PTCLDY    66  55  69 SW6       29.64R
QUINTON*       FAIR      65  60  83 SW3       29.65R
CHARLOTTSVILLE PTCLDY    58  41  53 NW7       29.69R
GORDONSVILLE*  FAIR      60  44  55 W12G18    29.68R
ORANGE*        MOCLDY    61  52  72 SW8       29.69R
LOUISA*        MOCLDY    63  48  59 W8        29.66R
BUMPASS*       CLOUDY    63  48  56 W7G25     29.66R
FARMVILLE*     MOCLDY    63  44  50 W7        29.71R
CREWE*         PTSUNNY   63  48  59 W7G16     29.70R
FORT PICKETT*  PTSUNNY   61  50  66 W14G20    29.70R
CHASE CITY*    PTSUNNY   63  49  60 NW8       29.73R
CLARKSVILLE*   FAIR      59  50  72 W7        29.73R
SOUTH HILL*    PTCLDY    60  54  80 W7        29.77R
LAWRENCEVILLE* PTSUNNY   59  59  99 MISG      29.70R
EMPORIA*       MOCLDY    59  59 100 SW3       29.71R
$$

VAZ088>098-210900-
SOUTHEAST VIRGINIA

CITY           SKY/WX    TMP DP  RH WIND       PRES   REMARKS
NORFOLK        LGT RAIN  68  60  75 SW14G26   29.65F
VIRGINIA BEACH MOCLDY    70  61  73 SW21G26   29.65F
NORFOLK NAVAL  LGT RAIN  70  61  73 SW12      29.66S
WEST POINT*    CLOUDY    69  60  74 SW9       29.66R
SALUDA*        FAIR      67  60  79 W7G20     29.64R
NEWPORT NEWS   CLOUDY    70  61  73 SW15      29.65R
LANGLEY AFB    CLOUDY    66  61  82 SW16      29.64R
FORT EUSTIS    CLOUDY    67  66  97 SW8       29.64R
WILLIAMSBURG*  CLOUDY    70  63  78 W8        29.67R
HR EXEC AP*    PTSUNNY   63  55  77 SW14      29.70R
FRANKLIN*      CLOUDY   N/A N/A N/A SW8       29.70S
WAKEFIELD      CLOUDY    65  61  87 SW7       29.67R
$$

VAZ020-022-025-037-045-210900-
WEST CENTRAL AND SOUTHWEST VIRGINIA

CITY           SKY/WX    TMP DP  RH WIND       PRES   REMARKS
STAUNTON*      CLOUDY    55  41  59 CALM      29.75R
WAYNESBORO*    PTSUNNY   52  41  66 W5        29.73R
HOT SPRINGS VA PTCLDY    40  33  76 W20G30    29.71S
LYNCHBURG      CLEAR     54  40  59 VRB3      29.75R
DANVILLE       PTCLDY    59  41  51 W7        29.77R
SOUTH BOSTON*  CLOUDY    60  44  54 W10G16    29.75R
MARTINSVILLE   CLEAR     54  38  53 NW8       29.81R
ROANOKE        PTCLDY    53  39  59 W14       29.78R
BLACKSBURG     PTCLDY    47  39  71 W9G17     29.82S
DUBLIN*        MOCLDY    49  40  71 W8        29.82S
MARION*        MOCLDY    47  37  67 W12       29.84R
HILLSVILLE*    CLEAR     45  38  78 NW10      29.81S
RICHLANDS*     CLOUDY    45  39  79 W9        29.84S
WISE*          CLOUDY    46  37  71 W9G17     29.87R
ABINGDON*      PTCLDY    47  43  85 W5        29.85S
$$

MDZ021>025-VAZ099-100-210900-
SOUTHERN MARYLAND AND THE DELMARVA PENINSULA

CITY           SKY/WX    TMP DP  RH WIND       PRES   REMARKS
PATUXENT RIVER CLOUDY    63  54  72 NW12      29.62R
BAY BRIDGE APT   N/A    N/A N/A N/A CALM      29.63R
LEONARDTOWN    CLOUDY    63  54  72 CALM      29.64R
DOVER          TSTM      61  61 100 NW2       29.58R FOG
GEORGETOWN     MOCLDY    66  55  67 W8G24     29.61R
EASTON         RAIN      60  60 100 CALM      29.67R
CAMBRIDGE      CLOUDY    63  54  72 NW9       29.63R
SALISBURY      MOCLDY    67  60  78 SW12      29.60S
OCEAN CITY     MOCLDY    61  58  90 S8        29.60S
WALLOPS ISLAND PTCLDY    64  60  87 SW9       29.63R
ACCOMACK*      CLOUDY    70  59  68 SW13G23   29.63S
$$

NCZ012>017-030>032-210900-
NORTH CENTRAL AND EASTERN NORTH CAROLINA

CITY           SKY/WX    TMP DP  RH WIND       PRES   REMARKS
ROANOKE RAPIDS PTSUNNY   55  55 100 CALM      29.71R
RALEIGH        MOCLDY    61  60  97 W5        29.75R
ELIZABETH CITY PTCLDY    67  61  81 SW13      29.69R
AHOSKIE*         N/A     58  57  95 CALM      29.72R
EDENTON*       PTCLDY    68  62  82 SW12G18   29.70F
CURRITUCK*     PTCLDY    69  60  73 SW9       29.70R
KILL DEVIL HLS CLOUDY    70  63  78 SW12      29.70S
MANTEO         CLOUDY    69  63  82 SW15      29.72R
CAPE HATTERAS  CLOUDY    67  60  78 SW16G31   29.73F
TARBORO*       CLOUDY    61  57  88 W5        29.73S
GOLDSBORO      MOCLDY    66  62  86 SW12      29.71R
WASHINGTON     PTCLDY    65  62  87 SW8       29.72S
GREENVILLE     MOCLDY    66  63  88 SW8       29.75S
NEW BERN       CLEAR     68  60  75 SW9       29.75R
WILMINGTON     CLEAR     67  60  78 SW14      29.78R
$$

VAZ048-210900-
ELSEWHERE

CITY           SKY/WX    TMP DP  RH WIND       PRES   REMARKS
HARRISBURG PA  LGT RAIN  57  51  80 NW15      29.60R
BALTIMORE      MOCLDY    58  57  97 W5        29.62R
ANNAPOLIS      MOCLDY    59  56  89 CALM      29.62R
ANDREWS AFB    MOCLDY    59  58  99 NW8       29.63R
PHILADELPHIA   LGT RAIN  60  57  89 CALM      29.59S FOG
HENDERSON NC   PTCLDY    59  53  79 NW12      29.74R
GREENSBORO     PTCLDY    56  41  57 NW17G25   29.78R
ROCKY MOUNT    HVY RAIN  63  59  87 W8        29.73R FOG
$$

VAZ100-210900-
MARINE

STATION/POSITION TIME  TEMP    WIND        PRES    WAVE   SWELL
                       AIR SEA DIR/SP/G            HT/PER HT/PER
                 (UTC) (F)     (DEG/KT/KT) (MB)    (FT/S) (FT/S)
BRANDYWINE LGT   0700   63 50  230/ 13/ 17 1001.3R
CAPE MAY NJ      0700   58 55  210/  9/ 12 1000.9R
LEWES DE         0700   70 51  240/ 10/ 16 1001.3R
15NM E FENWICK I 0750   52 47              1001.8R   7/ 8
OCEAN-CITY-INLET 0700   58 50  220/ 11/ 13 1001.9F
WACHAPREAGUE VA  0700   68 64  250/  6/ 12 1003.2F
THOMAS POINT MD  0800   59 52  230/  4/  4 1004.1R
GOOSES REEF MD   0800   59 58  350/  6/  6   N/A     1/ 3
COVE POINT MD    0700   67     240/ 12/ 15 1001.8R
SOLOMONS ISLAND  0700      56                N/A
BISHOPS HEAD MD  0700   66 63  230/ 17/ 19 1001.6R
PINEY POINT MD   0706          260/  9/ 12   N/A
CAMBRIDGE MD     0700   68 59  250/ 11/ 15 1002.2R
LEWISETTA VA     0700   68 57              1002.2R
RAPPAHANNOCK LGT 0700          190/ 14/ 15 1003.6F
STINGRAY PT      0800   67 60  260/ 14/ 19 1005.0R   1/ 2
YORK RVR RNG VA  0700   68     250/ 17/ 20 1002.6F
YORKTOWN VA      0700   69 60  230/ 11/ 16 1002.8F
DOMINION TERM VA 0700   68     210/ 17/ 19 1003.8F
KIPTOPEKE VA     0700      63  200/ 14/ 17   N/A
CHES BAY BRIDGE  0700   68 56  190/ 21/ 26 1003.4F
CAPE HENRY VA    0700   69     210/ 10/ 15 1003.0S
CHESAPEAKE LGHT  0700   63     220/ 23/ 24 1004.5F
WILLOUBY STN VA  0700   69     210/ 19/ 21 1004.1F
S CRANEY ISL VA  0700          200/  9/ 15 1003.8F
CAPE HENRY BUOY  0758      54                N/A     4/ 8   2/12
1ST LANDING BUOY 0800   66     240/ 21/ 25 1004.3R   2/ 3
OFFSHORE WE BUOY 0711      49                N/A     5/ 7   3/ 7
64NM E OF VA BCH 0750   61 57  220/ 19/ 21 1004.3F   6/ 8   3/11
DUCK PIER NC     0700   70 48  220/ 17/ 20 1004.4S
44056 DUCK FRF   0711      53                N/A     3/ 8   2/11
OREGON INLET NC  0700   68 66  200/ 15/ 19 1005.9F
HATTERAS NC      0700   70 68  200/ 18/ 25 1006.6R
DIAMOND SHLS NC  0750   74 74  220/ 23/ 29 1006.6S   7/ 6   2/13
CAPE LOOKOUT NC  0800   68     240/ 12/ 17 1007.4R
$$



USA.gov is the U.S. government's official web portal to all federal, state and local government web resources and services.